Weather History for KCNO - February, 2013

Change the Weather History Date:

Tuesday, February 5, 2013

  Actual Average Record
Temperature  
Mean Temperature 52 °F -  
Max Temperature 57 °F 64 °F 88 °F (2007)
Min Temperature 48 °F 38 °F 33 °F (1997)
Degree Days  
Heating Degree Days 12    
Growing Degree Days 2 (Base 50)    
Moisture  
Dew Point 48 °F    
Average Humidity 86    
Maximum Humidity 100    
Minimum Humidity 70    
Precipitation  
Precipitation 0.00 in - - ()
Sea Level Pressure  
Sea Level Pressure 30.05 in    
Wind  
Wind Speed 3 mph (WSW)    
Max Wind Speed 10 mph    
Max Gust Speed -    
Visibility 2 miles    
Events Fog    
Averages and records for this station are not official NWS values.
T = Trace of Precipitation, MM = Missing Value Source: NWS Daily Summary

Daily Weather History Graph

Daily Weather History Graph

Search for Another Location

Airport or City:

Trip Planner

Search our weather history database for the weather conditions in past years. The results will help you decide how hot, cold, wet, or windy it might be!

Date:

Astronomy

Feb. 05, 2013 Rise Set
Actual Time 6:44 AM PST 5:25 PM PST
Civil Twilight 6:18 AM PST 5:51 PM PST
Nautical Twilight 5:48 AM PST 6:21 PM PST
Astronomical Twilight 5:19 AM PST 6:50 PM PST
Moon 2:26 AM PST 12:52 PM PST
Length of Visible Light 11h 33m
Length of Day
10h 41m
Waning Crescent, 25% of the Moon is Illuminated
Feb 5
Waning Crescent
Feb 9
New
Feb 17
First Quarter
Feb 25
Full
Mar 4
Last Quarter

Hourly Weather History & Observations

Time (PST) Temp. Dew Point Humidity Pressure Visibility Wind Dir Wind Speed Gust Speed Precip Events Conditions
12:19 AM 48.2 °F 46.4 °F 93% 30.08 in 1.5 mi Calm Calm - N/A   Overcast
12:53 AM 50.0 °F 48.9 °F 96% 30.07 in 1.5 mi Calm Calm - N/A   Overcast
1:17 AM 50.0 °F 48.2 °F 94% 30.07 in 1.0 mi Calm Calm - N/A   Overcast
1:33 AM 50.0 °F 48.2 °F 94% 30.07 in 0.8 mi Calm Calm - N/A   Overcast
1:48 AM 50.0 °F 48.2 °F 94% 30.07 in 0.5 mi Calm Calm - N/A Fog Fog
1:53 AM 50.0 °F 48.9 °F 96% 30.06 in 0.5 mi Calm Calm - N/A Fog Fog
2:53 AM 50.0 °F 48.9 °F 96% 30.04 in 0.2 mi Calm Calm - N/A Fog Fog
4:53 AM 50.0 °F 48.9 °F 96% 30.03 in 0.2 mi Calm Calm - N/A Fog Fog
5:53 AM 48.9 °F 48.0 °F 97% 30.03 in 0.2 mi Calm Calm - N/A Fog Fog
6:53 AM 48.9 °F 48.0 °F 97% 30.05 in 0.2 mi Calm Calm - N/A Fog Fog
7:53 AM 48.0 °F 48.0 °F 100% 30.08 in 0.5 mi West 8.1 mph - N/A Fog Fog
8:53 AM 50.0 °F 48.0 °F 93% 30.10 in 1.2 mi WNW 8.1 mph - N/A   Overcast
9:53 AM 51.1 °F 48.0 °F 89% 30.11 in 1.5 mi SSW 3.5 mph - N/A   Overcast
10:53 AM 52.0 °F 48.0 °F 86% 30.10 in 1.8 mi West 3.5 mph - N/A   Overcast
11:49 AM 53.6 °F 48.2 °F 82% 30.09 in 2.0 mi WSW 5.8 mph - N/A   Haze
11:53 AM 54.0 °F 48.0 °F 80% 30.08 in 2.0 mi West 4.6 mph - N/A   Haze
12:21 PM 55.4 °F 48.2 °F 77% 30.07 in 3.0 mi WSW 6.9 mph - N/A   Haze
12:53 PM 55.9 °F 48.0 °F 75% 30.04 in 3.0 mi West 9.2 mph - N/A   Haze
1:31 PM 57.2 °F 48.2 °F 72% 30.03 in 4.0 mi West 8.1 mph - N/A   Haze
1:53 PM 57.9 °F 48.0 °F 70% 30.02 in 5.0 mi WNW 8.1 mph - N/A   Haze
2:53 PM 57.0 °F 48.0 °F 72% 30.00 in 5.0 mi WSW 4.6 mph - N/A   Haze
3:53 PM 57.9 °F 48.0 °F 70% 29.99 in 5.0 mi West 9.2 mph - N/A   Haze
4:53 PM 55.0 °F 46.9 °F 74% 30.01 in 5.0 mi West 10.4 mph - N/A   Haze
5:53 PM 52.0 °F 46.0 °F 80% 30.01 in 5.0 mi WSW 5.8 mph - N/A   Haze
6:53 PM 51.1 °F 46.9 °F 86% 30.02 in 4.0 mi WSW 3.5 mph - N/A   Mostly Cloudy
7:53 PM 52.0 °F 46.9 °F 83% 30.03 in 4.0 mi WSW 3.5 mph - N/A   Haze
8:53 PM 52.0 °F 46.9 °F 83% 30.04 in 4.0 mi West 4.6 mph - N/A   Haze
9:53 PM 52.0 °F 46.9 °F 83% 30.05 in 4.0 mi West 5.8 mph - N/A   Haze
10:53 PM 52.0 °F 46.9 °F 83% 30.04 in 3.0 mi SW 4.6 mph - N/A   Haze
11:53 PM 52.0 °F 46.9 °F 83% 30.03 in 3.0 mi WSW 6.9 mph - N/A   Haze